Piloten Info

Wichtige Hinweise:

  • Neue Tower Frequenz 122,330 kHz - keine Landung ohne Funkkontakt
  • PPR Betrieb
  • Temporäre Hindernisse (Baukräne) nahe dem Flugplatz durch Bauarbeiten entlang der Nürnberger Straße (Östliche Seite).
  • Starts auf RWY 09 sind nicht gestattet. Start generell auf RWY 27. Bei Planung Rückenwinde berücksichtigen!
  • Bei Anflügen auf RWY 27 sind Hindernisse vorhanden, aus diesem Grund die versetzte Schwelle27!
  • Der Flugverein Neumarkt führt seine Starts generell auf RWY 27 und Landungen auf RWY09 durch.
  • Es besteht keine Tankmöglichkeit.

Diese Hinweis sind als Ergänzung / Hilfe zur regulären Flugplanung gedacht.

Auszüge aus AIP VFR ohne Gewähr - es gelten die offiziellen Veröffentlichungen.




Wind Infos (noch im Aufbau)

Wind Speed
Wind Direction


METAR Informationen der nächstgelegenen Flughäfen


EDDN / Flughafen Nürnberg „Albrecht Dürer“

EDDN 250720Z 26007KT 220V300 9999 FEW020 SCT040 12/08 Q1001 NOSIG

ETIC / Fliegerhorst Grafenwöhr AAF

ETIC 250711Z 24005KT 9999 FEW015 SCT029 BKN036 OVC060 13/13 A2949 RMK AO2A SLP983 $

ETIH / Fliegerhorst Hohenfels AAF

ETIH 250718Z AUTO 27006KT 9999 -RA SCT031 BKN041 BKN050 OVC060 12/09 A2954 RMK AO2 RAE01DZB01E15RAB18 SLP999 $